Terug naar catalogus

HULIANWANG DIGUI-138

ActiefCommunicatieLEO
NORAD 67436·PAYLOAD·🇨🇳 China

Gelanceerd Jan 13, 2026 vanaf Wenchang Space Launch Site

Loading…

Volgende Passages (komende 24 uur)

TLE

VersSource: Space-Track

Epoch: Sep 14, 2026, 00:49 UTC

1 67436U 26007B   26257.03468823 -.00000082  00000-0  90108-4 0  9990
2 67436  50.0049 127.3291 0000433 355.8627   4.2241 13.29328741 32601

Volg HULIANWANG DIGUI-138 in realtime met AllMySat

Download on the App Store